AirNav   Duncan Aviation - Near you to keep you flying
 
 1562 users online  

OK58 Bluestem Airport
Collinsville, Oklahoma, USA

GOING TO COLLINSVILLE?


FAA INFORMATION EFFECTIVE 11 AUGUST 2022

Location

FAA Identifier: OK58
Lat/Long: 36-23-50.3330N 095-54-17.9650W
36-23.838883N 095-54.299417W
36.3973147,-95.9049903
(estimated)
Elevation: 660 ft. / 201 m (estimated)
Variation: 06E (1990)
From city: 3 miles NW of COLLINSVILLE, OK
Time zone: UTC -5 (UTC -6 during Standard Time)
Zip code: 74021

Airport Operations

Airport use: Private use. Permission required prior to landing
Activation date: 08/1993
Control tower: no
ARTCC: KANSAS CITY CENTER
FSS: MC ALESTER FLIGHT SERVICE STATION
Attendance: UNATNDD
Segmented circle: no

Airport Communications

WX ASOS at TUL (12 nm S): PHONE 918-831-6772
WX AWOS-3 at OWP (18 nm SW): 118.325 (918-246-2635)

Nearby radio navigation aids

VOR radial/distance  VOR name  Freq  Var
TULr327/13.3TULSA VORTAC114.4008E
BVOr160/26.8BARTLESVILLE VOR/DME117.9008E

Airport Services

Runway Information

Runway 9/27

Dimensions: 2400 x 50 ft. / 732 x 15 m
Surface: turf
RUNWAY 9  RUNWAY 27
Traffic pattern: leftleft

Runway 17/35

Dimensions: 2400 x 50 ft. / 732 x 15 m
Surface: turf
RUNWAY 17  RUNWAY 35
Traffic pattern: leftleft

Airport Ownership and Management from official FAA records

Ownership: Privately-owned
Owner: FRANKLIN R. SMITH
PO BOX 1288
OWASSO, OK 74055
Phone 918-371-2470
Manager: FRANKLIN R. SMITH
PO BOX 1288
OWASSO, OK 74055
Phone 918-371-2470

Airport Operational Statistics

Aircraft based on the field: 1
Single engine airplanes: 1
    

Additional Remarks

FOR CD CTC TULSA APCH AT 918-831-6714/6720.

Instrument Procedures

There are no published instrument procedures at OK58.

Some nearby airports with instrument procedures:

KTUL - Tulsa International Airport (12 nm S)
KOWP - William R Pogue Municipal Airport (18 nm SW)
KGCM - Claremore Regional Airport (21 nm E)
KRVS - Tulsa Riverside Airport (22 nm S)
KBVO - Bartlesville Municipal Airport (23 nm N)
 
Loc | Ops | Rwys | IFR | FBO | Links
Com | Nav | Svcs | Stats | Notes
Area around OK58 (Bluestem Airport)
 
Road maps at: MapQuest Bing Google
 
Aerial photo
No photo
 
Sectional chart

 
Airport distance calculator
Flying to Bluestem Airport? Find the distance to fly.

From to OK58

Sunrise and sunset
Times for 19-Aug-2022
 Local
(UTC-5)
 Zulu
(UTC)
Morning civil twilight06:1911:19
Sunrise06:4611:46
Sunset20:0901:09
Evening civil twilight20:3601:36

Current date and time
Zulu (UTC)  19-Aug-2022 14:08:32
Local (UTC-5)  19-Aug-2022 09:08:32
 
METAR
KTUL 
12nm S 
191353Z 20007KT 10SM CLR 24/19 A2997 RMK AO2 SLP139 T02440194
KRVS 
21nm S 
191353Z 21003KT 10SM CLR 23/20 A2997 RMK AO2 SLP152 T02330200
KGCM 
21nm E 
191355Z AUTO 00000KT 10SM CLR 23/19 A3000 RMK AO2
KBVO 
23nm N 
191353Z AUTO 00000KT 10SM CLR 23/20 A2998 RMK AO2 SLP143 T02330200
TAF
KTUL 
12nm S 
191125Z 1912/2012 19006KT P6SM SKC FM191800 17008KT P6SM FEW070 SCT250 FM200100 16007KT P6SM SCT150
NOTAMs
Click for the latest NOTAMs
NOTAMs are issued by the DoD/FAA and will open in a separate window not controlled by AirNav.

 

 
 

Would you like to see your business listed on this page?

 If your business provides an interesting product or service to pilots, flight crews, aircraft, or users of the Bluestem Airport, you should consider listing it here.  To start the listing process, click on the button below
 
Add a business
 

Other Pages about Bluestem Airport

Update a link
 
Copyright © AirNav, LLC. All rights reserved. Privacy Policy  Contact